Thedford, NE

6:52 PM CST on January 18, 2018 (GMT -0600)
Thedford

Weather History for KTIF - September, 2012

Change the Weather History Date:

Sunday, September 9, 2012

  Actual Average (KANW) Record (KANW)
Temperature  
Mean Temperature 61 °F -  
Max Temperature 83 °F 79 °F 93 °F (2000)
Min Temperature 39 °F 53 °F 35 °F (2012)
Degree Days  
Heating Degree Days 4    
Growing Degree Days 11 (Base 50)    
Moisture  
Dew Point 36 °F    
Average Humidity 44    
Maximum Humidity 88    
Minimum Humidity 15    
Precipitation  
Precipitation 0.00 in - - ()
Sea Level Pressure  
Sea Level Pressure 30.19 in    
Wind  
Wind Speed 5 mph (South)    
Max Wind Speed 16 mph    
Max Gust Speed 24 mph    
Visibility 10 miles    
Events      
Averages and records for this station are not official NWS values.
T = Trace of Precipitation, MM = Missing Value Source: NWS Daily Summary

Daily Weather History Graph

Daily Weather History Graph

Search for Another Location

Airport or City:

Trip Planner

Search our weather history database for the weather conditions in past years. The results will help you decide how hot, cold, wet, or windy it might be!

Date:

Astronomy

Sep. 09, 2012 Rise Set
Actual Time 7:16 AM CDT 8:01 PM CDT
Civil Twilight 6:48 AM CDT 8:29 PM CDT
Nautical Twilight 6:15 AM CDT 9:02 PM CDT
Astronomical Twilight 5:40 AM CDT 9:37 PM CDT
Moon 12:43 AM CDT (9/9) 3:52 PM CDT (9/9)
Length of Visible Light 13h 40m
Length of Day
12h 44m
Last Quarter, 39% of the Moon is Illuminated
Sep 9
Last Quarter
Sep 15
New
Sep 22
First Quarter
Sep 29
Full
Oct 8
Last Quarter

Hourly Weather History & Observations

Time (CDT) Temp. Dew Point Humidity Pressure Visibility Wind Dir Wind Speed Gust Speed Precip Events Conditions
12:15 AM 57.7 °F 42.1 °F 56% 30.24 in 10.0 mi NNE 3.5 mph - N/A   Clear
12:35 AM 55.0 °F 42.6 °F 63% 30.24 in 10.0 mi Calm Calm - N/A   Clear
12:55 AM 55.2 °F 42.3 °F 62% 30.24 in 10.0 mi Calm Calm - N/A   Clear
1:15 AM 54.3 °F 41.5 °F 62% 30.25 in 10.0 mi Calm Calm - N/A   Clear
1:35 AM 52.0 °F 41.2 °F 67% 30.25 in 10.0 mi Calm Calm - N/A   Clear
1:55 AM 50.7 °F 40.6 °F 68% 30.25 in 10.0 mi Calm Calm - N/A   Clear
2:15 AM 50.0 °F 40.5 °F 70% 30.25 in 10.0 mi Calm Calm - N/A   Clear
2:35 AM 49.1 °F 40.1 °F 71% 30.25 in 10.0 mi Calm Calm - N/A   Clear
2:55 AM 47.3 °F 39.4 °F 74% 30.25 in 10.0 mi Calm Calm - N/A   Clear
3:15 AM 46.8 °F 39.6 °F 76% 30.26 in 10.0 mi Calm Calm - N/A   Clear
3:35 AM 45.9 °F 39.2 °F 78% 30.26 in 10.0 mi Calm Calm - N/A   Clear
3:55 AM 46.2 °F 39.2 °F 76% 30.26 in 10.0 mi Calm Calm - N/A   Clear
4:15 AM 45.9 °F 38.1 °F 74% 30.26 in 10.0 mi Calm Calm - N/A   Clear
4:35 AM 44.6 °F 38.3 °F 79% 30.26 in 10.0 mi Calm Calm - N/A   Clear
4:55 AM 43.7 °F 37.8 °F 80% 30.26 in 10.0 mi Calm Calm - N/A   Clear
5:15 AM 43.3 °F 37.8 °F 81% 30.26 in 10.0 mi Calm Calm - N/A   Clear
5:35 AM 41.7 °F 36.7 °F 82% 30.26 in 10.0 mi Calm Calm - N/A   Clear
5:55 AM 41.0 °F 36.7 °F 85% 30.27 in 10.0 mi Calm Calm - N/A   Clear
6:15 AM 41.0 °F 36.9 °F 85% 30.27 in 10.0 mi Calm Calm - N/A   Clear
6:35 AM 40.3 °F 36.0 °F 85% 30.27 in 10.0 mi Calm Calm - N/A   Clear
6:55 AM 39.2 °F 36.0 °F 88% 30.28 in 10.0 mi Calm Calm - N/A   Clear
7:15 AM 39.6 °F 35.8 °F 86% 30.27 in 10.0 mi Calm Calm - N/A   Clear
7:35 AM 39.9 °F 35.8 °F 85% 30.28 in 10.0 mi Calm Calm - N/A   Clear
7:55 AM 40.5 °F 36.7 °F 86% 30.28 in 10.0 mi Calm Calm - N/A   Clear
8:15 AM 42.8 °F 39.2 °F 87% 30.28 in 10.0 mi Calm Calm - N/A   Clear
8:35 AM 47.5 °F 40.6 °F 77% 30.28 in 10.0 mi Calm Calm - N/A   Clear
8:55 AM 50.4 °F 42.3 °F 74% 30.28 in 10.0 mi Calm Calm - N/A   Clear
9:15 AM 55.2 °F 38.3 °F 53% 30.29 in 10.0 mi SSW 5.8 mph - N/A   Clear
9:35 AM 58.8 °F 35.6 °F 42% 30.29 in 10.0 mi South 9.2 mph - N/A   Clear
9:55 AM 60.6 °F 32.9 °F 35% 30.29 in 10.0 mi South 10.4 mph - N/A   Clear
10:15 AM 63.0 °F 32.0 °F 31% 30.29 in 10.0 mi SSE 8.1 mph - N/A   Clear
10:35 AM 63.9 °F 31.6 °F 30% 30.29 in 10.0 mi South 8.1 mph - N/A   Clear
10:55 AM 65.3 °F 31.8 °F 29% 30.28 in 10.0 mi South 11.5 mph - N/A   Clear
11:15 AM 66.6 °F 32.0 °F 28% 30.28 in 10.0 mi South 10.4 mph - N/A   Clear
11:35 AM 68.5 °F 31.6 °F 25% 30.27 in 10.0 mi South 9.2 mph - N/A   Clear
11:55 AM 69.8 °F 31.3 °F 24% 30.26 in 10.0 mi South 8.1 mph 16.1 mph N/A   Clear
12:15 PM 71.4 °F 32.0 °F 23% 30.26 in 10.0 mi South 11.5 mph - N/A   Clear
12:35 PM 72.9 °F 32.4 °F 23% 30.25 in 10.0 mi SSW 8.1 mph - N/A   Clear
12:55 PM 73.6 °F 33.3 °F 23% 30.24 in 10.0 mi South 10.4 mph 16.1 mph N/A   Clear
1:15 PM 74.5 °F 34.2 °F 23% 30.22 in 10.0 mi South 9.2 mph 16.1 mph N/A   Clear
1:35 PM 76.5 °F 34.9 °F 22% 30.21 in 10.0 mi SSE 13.8 mph - N/A   Clear
1:55 PM 77.4 °F 34.5 °F 21% 30.20 in 10.0 mi South 10.4 mph 16.1 mph N/A   Clear
2:15 PM 78.8 °F 34.0 °F 20% 30.19 in 10.0 mi SSE 5.8 mph 19.6 mph N/A   Clear
2:35 PM 79.7 °F 33.3 °F 19% 30.19 in 10.0 mi SSE 8.1 mph 17.3 mph N/A   Clear
2:55 PM 80.2 °F 32.7 °F 18% 30.17 in 10.0 mi South 10.4 mph - N/A   Clear
3:15 PM 81.0 °F 32.2 °F 17% 30.16 in 10.0 mi South 10.4 mph 17.3 mph N/A   Clear
3:35 PM 81.1 °F 31.6 °F 17% 30.15 in 10.0 mi South 11.5 mph 18.4 mph N/A   Clear
3:55 PM 81.9 °F 30.9 °F 16% 30.14 in 10.0 mi South 11.5 mph 18.4 mph N/A   Clear
4:15 PM 82.9 °F 32.0 °F 16% 30.13 in 10.0 mi SSE 13.8 mph 17.3 mph N/A   Clear
4:35 PM 82.6 °F 31.3 °F 16% 30.12 in 10.0 mi South 15.0 mph 21.9 mph N/A   Clear
4:55 PM 83.1 °F 31.3 °F 15% 30.11 in 10.0 mi South 13.8 mph 18.4 mph N/A   Clear
5:15 PM 82.8 °F 30.9 °F 15% 30.10 in 10.0 mi South 16.1 mph 21.9 mph N/A   Clear
5:35 PM 83.1 °F 31.3 °F 15% 30.09 in 10.0 mi South 15.0 mph 21.9 mph N/A   Clear
5:55 PM 82.8 °F 31.5 °F 16% 30.09 in 10.0 mi South 16.1 mph 24.2 mph N/A   Clear
6:15 PM 82.0 °F 32.0 °F 16% 30.08 in 10.0 mi South 13.8 mph 23.0 mph N/A   Clear
6:35 PM 81.9 °F 31.1 °F 16% 30.08 in 10.0 mi South 15.0 mph 21.9 mph N/A   Clear
6:55 PM 81.0 °F 32.0 °F 17% 30.07 in 10.0 mi South 15.0 mph - N/A   Clear
7:15 PM 80.1 °F 32.0 °F 17% 30.07 in 10.0 mi South 16.1 mph 20.7 mph N/A   Clear
7:35 PM 78.6 °F 32.0 °F 18% 30.07 in 10.0 mi South 12.7 mph 16.1 mph N/A   Clear
7:55 PM 76.6 °F 32.2 °F 20% 30.07 in 10.0 mi South 10.4 mph - N/A   Clear
8:15 PM 74.1 °F 32.9 °F 22% 30.06 in 10.0 mi SSE 9.2 mph - N/A   Clear
8:35 PM 70.9 °F 34.0 °F 26% 30.06 in 10.0 mi SSE 8.1 mph - N/A   Clear
8:55 PM 68.2 °F 34.7 °F 29% 30.07 in 10.0 mi SSE 9.2 mph - N/A   Clear
9:15 PM 67.1 °F 35.8 °F 31% 30.07 in 10.0 mi SSE 12.7 mph - N/A   Clear
9:35 PM 67.5 °F 36.5 °F 32% 30.07 in 10.0 mi SSE 12.7 mph - N/A   Clear
9:55 PM 67.3 °F 36.0 °F 32% 30.07 in 10.0 mi SSE 11.5 mph - N/A   Clear
10:15 PM 66.7 °F 36.0 °F 32% 30.06 in 10.0 mi SSE 12.7 mph - N/A   Clear
10:35 PM 66.7 °F 36.1 °F 32% 30.05 in 10.0 mi SSE 12.7 mph - N/A   Clear
10:55 PM 67.1 °F 36.3 °F 32% 30.05 in 10.0 mi SSE 13.8 mph 20.7 mph N/A   Clear
11:15 PM 67.3 °F 37.0 °F 33% 30.05 in 10.0 mi South 16.1 mph 23.0 mph N/A   Clear
11:35 PM 65.8 °F 37.4 °F 35% 30.05 in 10.0 mi South 15.0 mph 20.7 mph N/A   Clear
11:55 PM 65.3 °F 38.8 °F 38% 30.04 in 10.0 mi South 16.1 mph 21.9 mph N/A   Clear